Regional Weather Roundup
Issued by NWS Pendleton, OR

Home | Current Version | Previous Version | Text Only | Print | Product List | Glossary On
Versions: 1 2 3 4 5 6 7 8 9 10 11 12 13 14 15 16 17 18 19 20 21 22 23 24 25 26 27 28 29 30 31 32 33 34 35 36 37 38 39 40 41 42 43 44 45 46 47 48 49 50
000
ASUS46 KPDT 281925
RWRPDT
PENDLETON REGIONAL WEATHER ROUNDUP
NATIONAL WEATHER SERVICE PENDLETON OREGON
1200 PM PDT TUE MAR 28 2017

NOTE: FAIR INDICATES FEW OR NO CLOUDS BELOW 12,000 FEET WITH NO
SIGNIFICANT WEATHER AND/OR OBSTRUCTIONS TO VISIBILITY.

# INDICATES UNOFFICIAL STATION AND DATA

WAZ520-282010-
EAST SLOPES OF WASHINGTON CASCADES

CITY            SKY/WX      TMP DP  RH  WIND    PRES   REMARKS
#CLE ELUM HS    N/A         39  36  89  W1      30.15S
#CLE ELUM LAKE  N/A         36  35  96  CALM    30.23R
#GLENWOOD       N/A         45  41  86  SW8     30.28R
#MANASTASH CYN  N/A         44  34  68  CALM    30.14R
#NELSON 3SW     N/A         36  34  92  CALM    30.46R
#NILE           N/A         48  36  63  CALM    29.47S
#TEANAWAY 4NE   N/A         42  41  96  W1      N/A
#TROUT LAKE 1NE N/A         44  40  86  SW6     30.32R
#TROUT LAKE 1E  N/A         44  39  82  CALM    30.30R
$$

WAZ521-282010-
SIMCOE HIGHLANDS

CITY            SKY/WX      TMP DP  RH  WIND    PRES   REMARKS
#BICKLETON HS   N/A         44  37  76  SW29    30.22S WCI 34
#CENTERVILLE 1SWN/A         46  38  73  CALM    30.27S
#GOLDENDALE 1NE N/A         46  29  51  SW3     N/A
#GOLDENDALE 4W  N/A         46  19  34  W7      30.29S
#GOODNOE HILLS  N/A         50  37  61  W18     30.18F
#LYLE 6NE       N/A         44  40  86  CALM    30.29R
#PITT 4SE       N/A         42  38  86  W2      30.35R
$$

WAZ026-282010-
KITTITAS VALLEY

CITY            SKY/WX      TMP DP  RH  WIND    PRES   REMARKS
ELLENSBURG AP   CLOUDY      49  35  58  CALM    30.19F
#ELLENSBURG CWU N/A         49  37  63  CALM    30.16S
#ELLENSBURG 3NE N/A         47  38  71  CALM    28.26S
#ELLENSBURG 1E  N/A         48  N/A N/A CALM    N/A
#ELLENSBURG 13S N/A         50  33  52  SW3     N/A
#KITTITAS 4N    N/A         49  38  66  W2      30.20S
#KITTITAS 3S    N/A         47  38  71  CALM    30.20F
#THORP 6N       N/A         42  38  86  NW8     30.24S
$$

WAZ027-282010-
YAKIMA VALLEY

CITY            SKY/WX      TMP DP  RH  WIND    PRES   REMARKS
SUNNYSIDE AP    CLOUDY      53  33  46  CALM    30.24F
YAKIMA AIRPORT  CLOUDY      56  38  51  SW13    30.22S
YAKIMA-VAGABOND PTCLDY      51  37  59  SW12    30.19F
#DONALD 2NE     N/A         59   3  10  S14     28.91S
#GRANDVIEW      N/A         55  33  43  W3      30.26S
#MABTON         N/A         55  40  57  W9      30.24S
#MOXEE 2E       N/A         52   0  11  S8      30.12F
#NACHES 2SW     N/A         51  39  63  S5      30.21F
#TERRACE HTS    N/A         53  39  59  S3      30.20F
#TOPPENISH      N/A         54  39  57  S1      30.15F
#WEST VALLEY    N/A         51  37  59  SW7     30.20F
#W YAKIMA       N/A         52  38  59  SW2     30.22S
#WHITE SWAN 5E  N/A         55  39  55  SW12    30.23R
#WILEY CITY 3W  N/A         51  35  54  S5      30.17S
$$

WAZ028-282010-
LOWER COLUMBIA BASIN...WASHINGTON

CITY            SKY/WX      TMP DP  RH  WIND    PRES   REMARKS
HANFORD         CLOUDY      57  35  43  S9      30.22F
PASCO           MOCLDY      55  35  47  SW21    30.26F
PROSSER AWOS    N/A         54  37  52  S16G25  30.28S
RICHLAND AWOS   MOCLDY      56  39  53  S12     30.27R
#BENTON CITY    N/A         53  39  59  SW8     30.17S
#CONNELL 5N     N/A         52  41  66  SW10    30.25S
#CONNELL 5NW    N/A         51  41  68  S15     30.19F
#ELTOPIA 6NW    N/A         53  41  64  S7      29.20F
#KAHLOTUS       N/A         50  39  66  W22G33  30.25F
#KENNEWICK 3S   N/A         52  39  61  S9      30.27F
#PATERSON       N/A         53  39  59  NW12    30.27F
#SAGEMOOR 2W    N/A         53  39  59  SW15    30.11F
#TOUCHET 2S     N/A         57  41  55  SW8     30.26F
#WEST PASCO     N/A         56  40  55  S7      30.29F
$$

WAZ029-282010-
FOOTHILLS OF THE BLUES...WASHINGTON

CITY            SKY/WX      TMP DP  RH  WIND    PRES   REMARKS
WALLA WALLA AP  MOCLDY      54  36  50  S13     30.28F
#CLYDE 6NW      N/A         50  37  61  W21G30  30.26F
#DAYTON SCHOOL  N/A         50  29  44  SW7G24  30.27F
#LOWDEN 2SE     N/A         57  37  47  W9      30.24F
#PLEASANT VIEW 1N/A         50  39  66  SW17G26 30.29F
#PRESCOTT       N/A         55  40  57  SW5     30.27F
#WHITMAN COLLEGEN/A         53  36  52  S3      30.33F
#WAITSBURG 5S   N/A         50  39  66  SW10    30.38F
#WAITSBURG 8N   N/A         50  N/A N/A S21     30.20F
#WALLA WALLA 5E N/A         56  39  53  S16     N/A
#WHITMAN MISSIONN/A         56  39  53  SW8     30.29F
$$

WAZ030-282010-
BLUE MOUNTAINS...WASHINGTON

CITY            SKY/WX      TMP DP  RH  WIND    PRES   REMARKS
#DIXIE 5SE      N/A         46  33  60  SW15G24 30.18F WCI 40
$$

ORZ009-041-WAZ024-282010-
COLUMBIA RIVER GORGE

CITY            SKY/WX      TMP DP  RH  WIND    PRES   REMARKS
HOOD RIVER AP   MOCLDY      50  43  77  N3      30.31S
THE DALLES AP   MOCLDY      52  42  69  N6      30.32R
#ARLINGTON AIRPON/A         50  40  68  W10     30.31R
#CELILO DOT     N/A         50  38  63  W2      N/A
#LYLE           N/A         50  43  77  W2      30.34R
#MOSIER 1S      N/A         51  34  52  CALM    30.27F
#MURDOCK        N/A         50  43  77  N6      30.29S
#RUFUS DOT      N/A         51  40  66  NE3     N/A
#SMITHVILLE     N/A         51  43  74  N10     30.26F

$$

ORZ510-282010-
NORTH CENTRAL OREGON

CITY            SKY/WX      TMP DP  RH  WIND    PRES   REMARKS
#ANTELOPE       N/A         46  35  65  W9      30.22S
#CHENOWITH 1W   N/A         44  40  86  NW8     N/A
#COW CYN RST AREN/A         45  33  63  S10     N/A
#DUFUR          N/A         51  40  66  W1      30.27S
#DUFUR 9E       N/A         47  38  71  SW15    30.36R WCI 41
#GRASS VALLEY 1SN/A         49  39  68  SW13    30.39S WCI 44
#KENT DOT       N/A         48  28  46  N18     N/A    WCI 41
#MAUPIN SCHOOL  N/A         55  39  55  W6      30.33S
#MORO SCHOOL    N/A         48  41  77  SW3     30.34R
#SHANIKO 5WSW   N/A         43  27  53  N16     N/A    WCI 35
#SHANIKO 4NW    N/A         43  34  70  SW5     30.26R
#TYGH VALLEY 2NEN/A         53  40  61  N12     30.28F
#WAPANITIA AIRPON/A         50  36  58  W7      30.33R
#WASCO DOT      N/A         49  34  56  SW3     N/A
#WASCO 5NE      N/A         49  40  71  W7      30.30R
$$

ORZ511-282010-
CENTRAL OREGON

CITY            SKY/WX      TMP DP  RH  WIND    PRES   REMARKS
BEND AIRPORT    MOCLDY      48  30  49  NW6     30.30S
MADRAS AIRPORT  CLOUDY      50  34  54  S7      30.31F
PRINEVILLE AP   MOCLDY      48  34  58  N8      30.30F
REDMOND AIRPORT CLOUDY      51  30  44  W7      30.29F
#ASHWOOD SCHOOL N/A         49  34  56  S2      30.24R
#BEND 1SW       N/A         47  36  65  CALM    N/A
#BEND-AWBREY    N/A         48  35  60  W2      30.34S
#BEND-KIM LN    N/A         50  35  56  E1      30.27F
#CULVER         N/A         50  34  54  S10     30.25F
#CULVER 8W      N/A         51  32  48  SW3     30.25F
#POWELL BUTTE   N/A         47  32  56  NW7     30.22S
#PRINEVILLE     N/A         48  34  58  NW2     30.44F
#PRINEVILLE 3N  N/A         48  35  60  NW6     30.34F
#WARM SPRINGS   N/A         53  38  57  CALM    30.25

$$


ORZ509-282010-
EAST SLOPES OF OREGON CASCADES

CITY            SKY/WX      TMP DP  RH  WIND    PRES   REMARKS
SISTERS AWOS    N/A         48  27  44  W15G28  30.23F WCI 42
#BLUE BOX PASS  N/A         38  N/A N/A CALM    N/A
#CAMP SHERMAN   N/A         51  36  56  E6      30.39S
#LA PINE 4SW    N/A         48  29  47  W2      30.27F
#LA PINE 4NW    N/A         44  30  58  W1      30.42S
#LAVA BUTTE DOT N/A         44  29  55  SE2     N/A
#SISTERS 3N     N/A         49  29  46  NW6     30.38S
#SUNRIVER       N/A         48  34  58  SW5     30.36F
#TUMALO 3W      N/A         48  33  56  CALM    30.22S
#WANOGA BUTTE D N/A         35  27  72  W14     N/A    WCI 26

$$

ORZ044-282010-
LOWER COLUMBIA BASIN...OREGON

CITY            SKY/WX      TMP DP  RH  WIND    PRES   REMARKS
HERMISTON       CLOUDY      57  38  49  W15     30.27F
#BOARDMAN SCHOOLN/A         54  39  57  SW7     30.27F
#BOARDMAN 8SW   N/A         53  41  64  W12     30.28F
#ECHO 8SW       N/A         56  37  49  W8      30.28F
#I-84 EX 198 DOTN/A         54  35  48  N14     N/A
#IONE SCHOOL    N/A         54  35  48  SW12    30.30F
#UMATILLA       N/A         55  37  51  SW7     30.22F
$$

ORZ507-282010-
NORTHERN FOOTHILLS OF THE BLUES

CITY            SKY/WX      TMP DP  RH  WIND    PRES   REMARKS
PENDLETON AIRPT CLOUDY      55  35  47  SW14    30.27F
#ADAMS 3WNW     N/A         52  39  61  SW6     30.28F
#ATHENA         N/A         52  35  52  SW5     30.32F
#CAYUSE         N/A         52  35  52  SE9     30.28F
#HELIX SCHOOL   N/A         53  37  54  SW12    30.29F
#HELIX 3N       N/A         51  37  59  SW12    30.22F
#HOLDMAN 5SE    N/A         54  37  52  W12     30.25F
#HOLDMAN 6E     N/A         52  40  63  SW7     30.09F
#M-F FERNDALE   N/A         56  35  45  S1      30.24F
#M-F GROVE ELEM N/A         55  32  41  S3      30.25F
#M-FREEWATER 5SEN/A         54  35  48  SW6     30.26F
#PENDLETON DNTN N/A         57  33  40  W7      30.25F
#PDT AQUATIC CTRN/A         55  35  47  SW10    30.26F
#PDT SUNRIDGE   N/A         56  37  49  SW9     30.28F
#PENDLETON 7NW  N/A         56  39  53  SW10    25.80S
#PILOT ROCK 1S  N/A         55  32  41  S8      30.26F
#PILOT ROCK     N/A         56  37  49  W10     30.27F
#TUTUILLA       N/A         57  37  47  S7      30.29F
#WESTON SCHOOL  N/A         50  30  46  W13     30.27F

$$

ORZ508-282010-
SOUTHERN FOOTHILLS OF THE BLUES

CITY            SKY/WX      TMP DP  RH  WIND    PRES   REMARKS
LEXINGTON       MOCLDY      55  34  45  SW15G24 30.30F
#AJAX           N/A         47  30  51  S8      30.40S
#CONDON SCHOOL  N/A         46  36  68  SW13    30.20R WCI 40
#CONDON 5W      N/A         43  32  65  SW13    30.24R WCI 36
#HEPPNER EOC    N/A         51  34  52  SW7     30.23F
#HEPPNER 4NE    N/A         50  34  54  W9      30.30F
#LEXINGTON 2SE  N/A         55  35  47  CALM    30.25F
#MIKKALO        N/A         51  35  54  W14     30.36S
#OLEX 4N        N/A         51  39  63  W12     30.26S
#RUGGS 5NE      N/A         50  32  50  SW8     30.40F
#RUGGS 2SW      N/A         50  34  54  W13     30.32F

$$

ORZ502-503-282010-
BLUE MOUNTAINS

CITY            SKY/WX      TMP DP  RH  WIND    PRES   REMARKS
MEACHAM         CLOUDY      43  29  57  VRB3    30.26F
#BATTLE MTN DOT N/A         40  28  62  S8      N/A
#GREENHORN 9SW  N/A         45  34  65  NW2     26.44F
#HARDMAN 10S    N/A         40  32  73  SW3     30.46S
#HEPPNER 15SE   N/A         44  34  68  NW5     30.25S
#LADD CYN SMT   N/A         40  32  73  E1      N/A
#LADD CREEK ODOTN/A         42   7  23  SW3     N/A
#LONG CREEK HS  N/A         44  36  73  CALM    N/A
#N POWDER DOT   N/A         46  30  53  W14     N/A    WCI 40
#PIKES PEAK     N/A         41  29  62  W17G26  27.99S WCI 33
#TOLLGATE       N/A         35  31  85  SW3     30.06S
#TROY SCHOOL    N/A         54  39  57  CALM    30.14F
#UKIAH          N/A         44  33  65  S3      30.25F
#WESTON 4E      N/A         45  34  65  S6      30.29F
$$

ORZ505-282010-
JOHN DAY BASIN

CITY            SKY/WX      TMP DP  RH  WIND    PRES   REMARKS
JOHN DAY        CLOUDY      46  32  58  CALM    30.30S
#JOHN DAY KJDY  N/A         47  N/A N/A SW3     29.31F
#ANTELOPE 9ESE  N/A         54  35  48  S9      N/A
#DAYVILLE SCHOOLN/A         48  33  56  E3      30.25F
#MITCHELL       N/A         50  37  61  CALM    30.42F
#MITCHELL 8NW   N/A         46  32  58  CALM    30.25F
#MONUMENT HS    N/A         53  33  46  CALM    30.24F
#MT. VERNON 5SE N/A         43  33  67  CALM    30.24F
#SPRAY SCHOOL   N/A         52  N/A N/A CALM    N/A
#WINLOCK        N/A         49  36  61  W12     30.23F WCI 44
$$

ORZ506-282010-
OCHOCO AND JOHN DAY HIGHLANDS

CITY            SKY/WX      TMP DP  RH  WIND    PRES   REMARKS
#HORSE RIDGE DO N/A         45  29  53  NE3     N/A
#PAULINA SCHOOL N/A         43  28  55  SE2     N/A
#PINE MTN OBS   N/A         35  30  82  SW5     N/A
#PRAIRIE CITY   N/A         44  32  62  CALM    30.47S
#SENECA 9NW     N/A         37  31  79  S1      30.37F
$$

ORZ049-282010-
GRANDE RONDE VALLEY

CITY            SKY/WX      TMP DP  RH  WIND    PRES   REMARKS
LA GRANDE       PTCLDY      46  34  63  SE6     30.28F
#COVE           N/A         45  38  76  N2      30.29F
#COVE SCHOOL    N/A         45  34  65  CALM    30.28F
#COVE 6NW       N/A         45  35  68  CALM    30.34F
#ELGIN 3N       N/A         46  32  58  S9      30.23F
#ELGIN 1E       N/A         47  36  65  CALM    N/A
#IMBLER SCHOOL  N/A         44  35  70  SE9     30.22F
#ISLAND CITY 4N N/A         51  47  86  SW3     30.32F
#UNION 1S       N/A         45  35  68  CALM    30.35S
$$

ORZ050-282010-
WALLOWA COUNTY

CITY            SKY/WX      TMP DP  RH  WIND    PRES   REMARKS
JOSEPH AIRPORT  CLOUDY      43  28  55  CALM    30.26F
#IMNAHA SCHOOL  N/A         54  33  45  S2      30.25F
#JOSEPH 3N      N/A         42  27  55  CALM    30.26S
#JOSEPH 3W      N/A         42  32  67  E1      30.06F
#LOSTINE        N/A         46  33  60  W2      30.12F
#LOSTINE 3SE    N/A         44  33  65  NE1     30.31F
#MT HOWARD 8000 N/A         26  23  88  CALM    30.15F
#PROMISE 1S     N/A         39  31  73  E6      30.42S
#WALLOWA SCHOOL N/A         46  34  63  CALM    30.22F



$$



USA.gov is the U.S. government's official web portal to all federal, state and local government web resources and services.